FW1098 Weather Reports


time (UTC)temp
F
wind
direction
speed
knots
gust
knots
rain 1hr
in
rain 24hr
in
rain mn
in
humidity
%
barometer
mb
20260504194608 79 288 0.9 8.7 0.00 0.00 0.00 32 1015.6
20260504193109 79 229 0.0 5.2 0.00 0.00 0.00 33 1015.8
20260504191555 79 277 0.9 3.5 0.00 0.00 0.00 30 1016.2
20260504190112 79 227 1.7 5.2 0.00 0.00 0.00 33 1016.3
20260504184559 78 216 1.7 6.1 0.00 0.00 0.00 33 1016.5
20260504183050 78 229 1.7 6.1 0.00 0.00 0.00 33 1016.7
20260504181547 77 281 3.5 8.7 0.00 0.00 0.00 33 1016.8
20260504180048 78 211 1.7 4.3 0.00 0.00 0.00 31 1016.9
20260504174543 76 318 1.7 5.2 0.00 0.00 0.00 35 1017.0
20260504173048 75 223 2.6 7.8 0.00 0.00 0.00 35 1017.1
20260504171537 75 232 0.9 7.0 0.00 0.00 0.00 36 1017.2
20260504081520 44 199 0.0 0.0 0.00 0.01 0.00 91 1018.2
20260504050004 46 199 0.0 0.0 0.00 0.01 0.00 86 1018.6
20260504044508 46 199 0.0 0.0 0.00 0.01 0.00 84 1018.5
20260504043001 47 199 0.0 0.0 0.00 0.01 0.00 83 1018.5
20260504041600 47 199 0.0 0.0 0.00 0.01 0.00 83 1018.4
20260504040106 47 199 0.0 0.0 0.00 0.01 0.00 82 1018.4
20260504034604 48 199 0.0 0.0 0.00 0.01 0.01 82 1018.3
20260504033114 48 199 0.0 0.0 0.00 0.01 0.01 82 1018.4
20260504031557 49 199 0.0 0.0 0.00 0.01 0.01 82 1018.4
20260504030056 50 199 0.0 0.0 0.00 0.01 0.01 80 1018.4
20260504024604 50 199 0.0 0.0 0.00 0.01 0.01 79 1018.4
20260504023055 51 199 0.0 0.0 0.00 0.01 0.01 78 1018.4
20260504021554 51 199 0.0 0.0 0.00 0.01 0.01 77 1018.3
20260504020054 52 199 0.0 0.0 0.00 0.01 0.01 75 1018.1
20260504014554 53 199 0.0 0.0 0.00 0.01 0.01 74 1017.9
20260504013053 54 199 0.0 0.0 0.00 0.01 0.01 72 1017.7
20260504011553 55 199 0.0 0.0 0.00 0.01 0.01 71 1017.7
20260504010057 57 199 0.0 0.0 0.00 0.01 0.01 69 1017.4
20260504004553 58 199 0.0 0.0 0.00 0.01 0.01 68 1017.3
20260504003053 59 199 0.0 0.0 0.00 0.01 0.01 66 1017.1
20260504001608 59 246 0.0 0.0 0.00 0.01 0.01 65 1017.1
20260504000050 60 246 0.0 0.0 0.00 0.01 0.01 64 1017.1
20260503234549 61 246 0.0 0.0 0.00 0.01 0.01 63 1017.0
20260503233050 63 246 0.0 1.7 0.00 0.01 0.01 58 1017.0
20260503231548 67 246 0.9 2.6 0.00 0.01 0.01 49 1017.0
20260503230052 68 242 0.0 2.6 0.00 0.01 0.01 44 1017.0
20260503224547 69 265 0.0 5.2 0.00 0.01 0.01 43 1017.0
20260503223047 70 201 0.9 6.1 0.00 0.01 0.01 42 1017.0
20260503221545 70 253 0.0 5.2 0.00 0.01 0.01 44 1017.0
20260503220103 70 46 0.9 5.2 0.00 0.01 0.01 43 1016.9
20260503214546 70 291 0.9 7.0 0.00 0.01 0.01 44 1017.0
20260503213047 71 230 0.9 3.5 0.00 0.01 0.01 42 1017.0
20260503211559 71 257 0.9 5.2 0.00 0.01 0.01 43 1017.0
20260503210042 71 298 1.7 7.0 0.00 0.01 0.01 43 1017.1
20260503204541 70 189 2.6 5.2 0.00 0.01 0.01 42 1017.2
20260503203040 70 246 0.9 4.3 0.00 0.01 0.01 41 1017.3
20260503201540 70 246 1.7 6.1 0.00 0.01 0.01 45 1017.6
20260503200039 70 195 2.6 7.0 0.00 0.01 0.01 41 1017.8